Regional Weather Roundup
Issued by NWS

Home | Current Version | Previous Version | Graphics & Text | Print | Product List | Glossary On
Versions: 1 2 3 4 5 6 7 8 9 10 11 12 13 14 15 16 17 18 19 20 21 22 23 24 25 26 27 28 29 30 31 32 33 34 35 36 37 38 39 40 41 42 43 44 45 46 47 48 49 50
000
ASUS45 KPSR 100910
RWRAZ

ARIZONA REGIONAL HOURLY WEATHER ROUNDUP
NATIONAL WEATHER SERVICE PHOENIX AZ
200 AM MST THU JUL 10 2014

NOTE: FAIR INDICATES FEW OR NO CLOUDS BELOW 12,000 FEET WITH NO
SIGNIFICANT WEATHER AND/OR OBSTRUCTIONS TO VISIBILITY.

AZZ001>003-036-101000-
NORTHWEST ARIZONA

CITY           SKY/WX    TMP DP  RH WIND       PRES   REMARKS
BULLHEAD CITY  CLOUDY    90 N/A N/A CALM      29.81S
KINGMAN        CLOUDY    76  64  66 SE6       29.99F
$$

AZZ004>008-015-016-018-101000-
NORTH CENTRAL ARIZONA

CITY           SKY/WX    TMP DP  RH WIND       PRES   REMARKS
GRAND CANYON   MOCLDY    57  55  93 CALM      30.24F
WILLIAMS         N/A     57  54  88 CALM      30.32R
PRESCOTT       PTCLDY    67  56  67 S6        30.14F
FLAGSTAFF      MOCLDY    55  51  86 CALM      30.27F
PAYSON         CLEAR     68  55  64 CALM      30.16F
PAGE           PTCLDY    78  50  37 SE6       30.04R
$$

AZZ009>014-017-101000-
NORTHEAST ARIZONA

CITY           SKY/WX    TMP DP  RH WIND       PRES   REMARKS
WINSLOW        PTCLDY    69  56  62 SE3       30.14F
SAINT JOHNS    PTCLDY    63  49  60 W3        30.18S
WINDOW ROCK    MOCLDY    63  53  70 N7        30.26F
SHOW LOW       PTCLDY    59  50  72 S3        30.26S
$$

AZZ023-101000-
GREATER PHOENIX AREA

CITY           SKY/WX    TMP DP  RH WIND       PRES   REMARKS
PHOENIX        PTCLDY    90  60  36 NW7       29.84F
BUCKEYE          N/A     82  63  51 NW5       29.86S
LUKE AFB       NOT AVBL
DEER VALLEY    PTCLDY    86  58  38 CALM      29.87S
SCOTTSDALE     CLEAR     87  60  40 CALM      29.88F
MESA-GATEWAY   PTCLDY    81  61  50 CALM      29.89S
$$

AZZ027-028-101000-
SOUTHWEST MARICOPA COUNTY AND PINAL COUNTY

CITY           SKY/WX    TMP DP  RH WIND       PRES   REMARKS
CASA GRANDE    MOCLDY    82  63  51 CALM      29.89S
$$

AZZ503-504-507>509-101000-
SOUTHEAST ARIZONA

CITY           SKY/WX    TMP DP  RH WIND       PRES   REMARKS
TUCSON         CLOUDY    79  62  56 SE8       29.99S
DAVIS-MONTHAN  MOCLDY    77  64  64 S7        29.98S
NOGALES        MOCLDY    69  65  86 E3        30.07F
SIERRA VISTA   CLOUDY    70  61  73 S3        30.11F
DOUGLAS        PTCLDY    66  62  87 E3        30.08F
SAFFORD        PTCLDY    78  59  51 NW8       29.97S
$$

AZZ020-021-025-026-031-101000-
SOUTHWEST ARIZONA

CITY           SKY/WX    TMP DP  RH WIND       PRES   REMARKS
YUMA           PTCLDY    86  67  52 S6        29.79F
$$

CAZ031-033-041-043-047-048-061-101000-
SOUTHERN CALIFORNIA

CITY           SKY/WX    TMP DP  RH WIND       PRES   REMARKS
DOWNTOWN L.A.  MOCLDY    67  61  81 CALM      29.94F
L.A. AIRPORT   CLOUDY    67  61  81 W7        29.94F
SAN DIEGO      MOCLDY    70  60  70 NW3       29.95F
BURBANK        CLEAR     65  60  84 CALM      29.94F
ONTARIO        CLEAR     66  61  84 SW6       29.95S
RIVERSIDE      CLEAR     66  60  81 W3        29.95S
PALM SPRINGS   CLEAR     87  54  32 NW9       29.83S
EL CENTRO NAS  CLEAR     83  73  72 S7        29.75F
IMPERIAL       CLEAR     84  73  69 SE10      29.76S
BLYTHE         MOCLDY    87  65  47 S12       29.79F
NEEDLES        CLOUDY    90  66  45 SW5       29.81S
$$

NVZ020-UTZ003-101000-
SOUTHERN NEVADA-UTAH

CITY           SKY/WX    TMP DP  RH WIND       PRES   REMARKS
LAS VEGAS      MOCLDY    87  60  40 S15       29.82S
SALT LAKE CITY LGT RAIN  71  60  68 SE9       29.99R
$$

NMZ009-TXZ055-101000-
NEW MEXICO-WEST TEXAS

CITY           SKY/WX    TMP DP  RH WIND       PRES   REMARKS
ALBUQUERQUE    MOCLDY    72  54  53 NE6       30.15F
EL PASO        PTCLDY    78  57  48 SE6       30.02R
$$


........................KEY........................
SKY/WX - SKY CONDITION/WEATHER
TMP    - TEMPERATURE IN FAHRENHEIT
DP     - DEW POINT IN FAHRENHEIT
RH     - RELATIVE HUMIDITY IN PERCENT
WIND   - DIRECTION AND SPEED IN MILES PER HOUR (MPH)
VRB    - VARIABLE WIND DIRECTION
PRES   - MEAN SEA LEVEL PRESSURE IN INCHES OF MERCURY
         F - FALLING PRESSURE   R - RISING PRESSURE
         S - STEADY PRESSURE
VSB    - VISIBILITY IN MILES
HX     - HEAT INDEX IN FAHRENHEIT
WCI    - WIND CHILL INDEX IN FAHRENHEIT
TC     - TEMPERATURE IN CELSIUS WHICH IS ALSO KNOWN AS
         TEMPERATURE IN CENTIGRADE
AFB    - AIR FORCE BASE
         LUKE AFB IS LUKE AIR FORCE BASE
         DAVIS-MONTHAN IS DAVIS-MONTHAN AIR FORCE BASE
NAS    - NAVAL AIR STATION
         EL CENTRO NAS IS EL CENTRO NAVAL AIR STATION
N/A    - NOT AVAILABLE



USA.gov is the U.S. government's official web portal to all federal, state and local government web resources and services.